DW2144 Weather Reports


Display with metric or nautical units.
time (UTC)temp
F
wind
direction
speed
MPH
gust
MPH
rain 1hr
in
rain 24hr
in
rain mn
in
humidity
%
barometer
mb
20260509171515 65 322 0.0 0.0 0.00 0.00 0.00 83 1014.0
20260509170014 62 322 0.0 0.0 0.00 0.00 0.00 86 1014.1
20260509164509 59 322 0.0 0.0 0.00 0.00 0.00 84 1014.1
20260509163001 56 322 0.0 0.0 0.00 0.00 0.00 81 1014.4
20260509161605 55 322 0.0 0.0 0.00 0.00 0.00 82 1014.4
20260509160101 54 322 0.0 1.0 0.00 0.00 0.00 82 1014.5
20260509154554 53 325 0.0 0.0 0.00 0.00 0.00 81 1014.5
20260509153059 52 328 0.0 1.0 0.00 0.00 0.00 82 1014.6
20260509151550 52 328 0.0 1.0 0.00 0.00 0.00 82 1014.5
20260509150050 51 328 0.0 0.0 0.00 0.00 0.00 83 1014.3
20260509144551 49 328 0.0 0.0 0.00 0.00 0.00 84 1014.3
20260509143047 48 328 0.0 0.0 0.00 0.00 0.00 86 1014.3
20260509141547 48 328 0.0 0.0 0.00 0.00 0.00 86 1014.2
20260509140056 47 328 0.0 0.0 0.00 0.00 0.00 87 1014.2
20260509134545 47 328 0.0 0.0 0.00 0.00 0.00 87 1014.1
20260509133045 47 328 0.0 0.0 0.00 0.00 0.00 87 1014.1
20260509131545 47 328 0.0 0.0 0.00 0.00 0.00 87 1013.9
20260509130044 47 328 0.0 0.0 0.00 0.00 0.00 87 1013.7
20260509124550 47 328 0.0 0.0 0.00 0.00 0.00 87 1013.9
20260509123042 47 328 0.0 0.0 0.00 0.00 0.00 87 1013.7
20260509121541 47 328 0.0 0.0 0.00 0.00 0.00 87 1013.9
20260509120041 48 328 0.0 0.0 0.00 0.00 0.00 87 1013.9
20260509114539 48 328 0.0 0.0 0.00 0.00 0.00 87 1013.9
20260509113038 48 328 0.0 0.0 0.00 0.00 0.00 87 1014.0
20260509111538 48 328 0.0 0.0 0.00 0.00 0.00 87 1014.1
20260509110037 48 328 0.0 0.0 0.00 0.00 0.00 87 1014.1
20260509104534 49 328 0.0 0.0 0.00 0.00 0.00 87 1014.0
20260509103038 49 328 0.0 0.0 0.00 0.00 0.00 87 1013.9
20260509101533 49 328 0.0 0.0 0.00 0.00 0.00 87 1013.9
20260509100031 49 328 0.0 0.0 0.00 0.00 0.00 87 1013.8
20260509094533 49 328 0.0 0.0 0.00 0.00 0.00 87 1013.9
20260509093028 50 328 0.0 0.0 0.00 0.00 0.00 87 1013.9
20260509091518 50 328 0.0 0.0 0.00 0.00 0.00 87 1013.9
20260509090021 50 328 0.0 0.0 0.00 0.00 0.00 87 1013.9
20260509084513 50 328 0.0 0.0 0.00 0.00 0.00 87 1014.0
20260509083012 51 328 0.0 0.0 0.00 0.00 0.00 87 1014.1
20260509081511 51 328 0.0 0.0 0.00 0.00 0.00 87 1014.2
20260509080009 51 328 0.0 0.0 0.00 0.00 0.00 87 1014.3
20260509074508 51 328 0.0 0.0 0.00 0.00 0.00 87 1014.3
20260509073015 52 328 0.0 0.0 0.00 0.00 0.00 87 1014.4
20260509071504 52 328 0.0 0.0 0.00 0.00 0.00 87 1014.3
20260509070002 53 328 0.0 0.0 0.00 0.00 0.00 86 1014.4
20260509064502 53 328 0.0 0.0 0.00 0.00 0.00 87 1014.5
20260509063003 53 328 0.0 0.0 0.00 0.00 0.00 86 1014.6
20260509061601 54 328 0.0 0.0 0.00 0.00 0.00 86 1014.5
20260509060117 54 328 0.0 0.0 0.00 0.00 0.00 86 1014.6
20260509054600 54 328 0.0 0.0 0.00 0.00 0.00 85 1014.4
20260509053117 55 328 0.0 0.0 0.00 0.00 0.00 84 1014.5
20260509051610 56 328 0.0 0.0 0.00 0.00 0.00 84 1014.4
20260509044606 57 328 0.0 0.0 0.00 0.00 0.00 83 1014.2
20260509043101 58 328 0.0 0.0 0.00 0.00 0.00 83 1014.2
20260509041557 59 328 0.0 0.0 0.00 0.00 0.00 81 1014.1
20260509040108 60 328 0.0 0.0 0.00 0.00 0.00 80 1014.1
20260509034558 61 328 0.0 0.0 0.00 0.00 0.00 79 1013.9
20260509033123 62 328 0.0 0.0 0.00 0.00 0.00 76 1013.8
20260509031555 64 328 0.0 0.0 0.00 0.00 0.00 74 1013.7
20260509030055 66 328 0.0 0.0 0.00 0.00 0.00 73 1013.5
20260509024604 67 328 0.0 0.0 0.00 0.00 0.00 70 1013.5
20260509023053 68 328 0.0 0.0 0.00 0.00 0.00 68 1013.4
20260509021553 69 328 0.0 1.0 0.00 0.00 0.00 66 1013.3
20260509020107 70 328 0.0 2.0 0.00 0.00 0.00 64 1013.2
20260509014552 71 328 0.0 2.0 0.00 0.00 0.00 64 1013.2
20260509013055 71 325 0.0 3.0 0.00 0.00 0.00 64 1013.2
20260509011558 72 324 0.0 2.0 0.00 0.00 0.00 64 1013.2
20260509010050 73 324 0.0 3.0 0.00 0.00 0.00 63 1013.3
20260509004550 73 322 0.0 1.0 0.00 0.00 0.00 64 1013.5
20260509003055 74 322 0.0 3.0 0.00 0.00 0.00 64 1013.5
20260509001547 74 322 0.0 3.0 0.00 0.00 0.00 63 1013.5
20260509000045 75 323 0.0 5.0 0.00 0.00 0.00 62 1013.6
20260508234545 75 336 0.0 4.0 0.00 0.00 0.00 63 1013.8
20260508233046 75 335 0.0 3.0 0.00 0.00 0.00 61 1013.9
20260508231547 75 336 0.0 4.0 0.00 0.00 0.00 61 1014.0
20260508230042 76 350 0.0 4.0 0.00 0.00 0.00 61 1014.1
20260508224548 76 360 0.0 2.0 0.00 0.00 0.00 61 1014.2
20260508223034 76 360 0.0 5.0 0.00 0.00 0.00 61 1014.4
20260508221532 75 347 0.0 3.0 0.00 0.00 0.00 60 1014.6
20260508220030 76 347 0.0 4.0 0.00 0.00 0.00 59 1014.9
20260508214532 76 347 0.0 4.0 0.00 0.00 0.00 59 1014.8
20260508213025 75 350 0.0 3.0 0.00 0.00 0.00 60 1015.1
20260508211521 75 350 1.0 4.0 0.00 0.00 0.00 59 1015.2
20260508210030 75 350 0.0 5.0 0.00 0.00 0.00 60 1015.4
20260508204518 75 355 0.0 4.0 0.00 0.00 0.00 62 1015.5
20260508203014 74 336 0.0 4.0 0.00 0.00 0.00 63 1015.6
20260508201511 73 293 0.0 3.0 0.00 0.00 0.00 63 1015.8
20260508200011 74 331 0.0 3.0 0.00 0.00 0.00 61 1016.0
20260508194508 74 331 0.0 1.0 0.00 0.00 0.00 63 1016.1
20260508193002 73 331 0.0 1.0 0.00 0.00 0.00 64 1016.4
20260508191608 72 331 0.0 0.0 0.00 0.00 0.00 66 1016.4
20260508190113 71 331 0.0 3.0 0.00 0.00 0.00 67 1016.6
20260508184555 70 332 0.0 1.0 0.00 0.00 0.00 68 1016.6
20260508183054 69 333 0.0 3.0 0.00 0.00 0.00 68 1017.0
20260508181553 68 333 0.0 1.0 0.00 0.00 0.00 70 1017.0
20260508180045 67 333 0.0 0.0 0.00 0.00 0.00 71 1017.0
20260508174543 66 333 0.0 1.0 0.00 0.00 0.00 73 1017.2
20260508173037 64 332 0.0 1.0 0.00 0.00 0.00 76 1017.4